sat.trackr.live / text

‹ back to catalog

NSS-12

NORAD 36032 · 2009-058A

PAYLOAD ACTIVE UNKNOWN

§ Identity

Operator
Country
SES
Launch date
2009-10-29
Launch site
FRGUI
Launch vehicle
Mass (kg)
RCS (m²)
7.94

Purposes: comms

External: N2YO · Heavens-Above · Gunter

§ Orbital elements

Epoch: 2026-09-13T02:08:57.118272Z

Period
1,436.10 min
Inclination
0.0202°
Eccentricity
0.0003293
Mean motion
1.00271420 rev/d
Perigee alt
35,772.8 km
Apogee alt
35,800.6 km
Semi-major
42,164.8 km
B*
0.0000e+0
RAAN
135.1935°
Arg perigee
357.8061°
Mean anomaly
308.3208°
Rev number
6,179

§ Raw data

NSS-121 36032U 09058A   26256.08954998  .00000000  00000+0  00000+0 0  99972 36032   0.0202 135.1935 0003293 357.8061 308.3208  1.00271420 61798

JSON: /api/v1/satellites/36032 · /tle

For live sub-satellite position, see the globe view (requires WebGL).

§ Visibility from observer

Set your observer location to see the next 7 days of passes ≥ 10°. The values pass through the URL so the page stays shareable.

No JS? Fill the form by hand. The geolocation button needs JavaScript.